Left ArrowRight Arrow

Hourly Observations for May 22, 2024

Temp ( °F °C ) Dew Point ( °F °C ) Humidity (%) Winds ( mph kmh ) Pressure ( in mb ) Visibility ( mi km ) Precip ( " mm )
12:55 am 00:55 Clear 69 20.3 65 18.6 90 90 Calm 29.98 1015 10 16 0.00 0.00
1:59 am 01:59 Clear 69 20.5 67 19.3 93 93 Calm 29.97 1015 10 16 0.00 0.00
2:55 am 02:55 Clear 69 20.6 67 19.2 92 92 Calm 29.99 1016 10 16 0.00 0.00
3:55 am 03:55 Clear with Mist and Fog 68 20.2 67 19.2 94 94 Calm 29.99 1016 8 13 0.00 0.00
4:56 am 04:56 Clear with Mist and Fog 68 20 66 19 94 94 Calm 29.99 1016 6 10 0.00 0.00
5:57 am 05:57 Clear 66 19.1 65 18.1 94 94 Calm 30.00 1016 10 16 0.00 0.00
6:55 am 06:55 Sunny 68 19.9 66 18.9 94 94 Calm 30.01 1016 10 16 0.00 0.00
7:55 am 07:55 Sunny 72 22.4 69 20.5 89 89 Calm 30.03 1017 10 16 0.00 0.00
8:55 am 08:55 Sunny 76 24.5 69 20.8 80 80 NE 3 6 30.05 1018 10 16 0.00 0.00
9:55 am 09:55 Mostly Sunny 80 26.5 67 19.6 66 66 Calm 30.06 1018 10 16 0.00 0.00
10:55 am 10:55 Mostly Sunny 83 28.1 62 16.7 50 50 E 7 11 30.05 1018 10 16 0.00 0.00
11:55 am 11:55 Partly Cloudy 83 28.6 61 16.2 47 47 SE 7 11 30.06 1018 10 16 0.00 0.00
12:55 pm 12:55 Partly Cloudy 84 28.8 61 16.3 47 47 SE 7 11 30.04 1017 10 16 0.00 0.00
1:55 pm 13:55 Mostly Sunny 84 29.1 61 16.3 46 46 E 9 15 30.04 1017 10 16 0.00 0.00
2:55 pm 14:55 Mostly Sunny 84 29 61 16.2 46 46 ESE 6 9 30.02 1017 10 16 0.00 0.00
3:55 pm 15:55 Sunny 85 29.2 60 15.7 44 44 ESE 9 15 29.99 1016 10 16 0.00 0.00
4:55 pm 16:55 Sunny 83 28.6 60 15.8 46 46 ESE 9 15 29.98 1015 10 16 0.00 0.00
5:55 pm 17:55 Sunny 82 28 63 17.2 52 52 S 6 9 29.98 1015 10 16 0.00 0.00
6:55 pm 18:55 Sunny 81 27.4 64 17.5 55 55 SSE 6 9 29.97 1015 10 16 0.00 0.00
7:55 pm 19:55 Sunny 80 26.4 64 18 60 60 SE 5 7 29.98 1015 10 16 0.00 0.00
8:55 pm 20:55 Clear 76 24.4 65 18.5 70 70 ESE 5 7 29.99 1016 10 16 0.00 0.00
9:55 pm 21:55 Clear 75 24.1 67 19.4 75 75 Calm 30.01 1016 10 16 0.00 0.00
10:56 pm 22:56 Clear 75 23.7 68 20 80 80 Calm 30.03 1017 10 16 0.00 0.00
11:56 pm 23:56 Clear 73 23 68 20.1 84 84 Calm 30.04 1017 10 16 0.00 0.00

Powered by Vaisala Xweather